Location: ???????????
(55.5758°N, 38.4970°E)
Time: 18:17:55
(UTC+00:00)

NOSS 0 Rocket - Pass Details

Date: 15 November 2025
Orbit: 934 x 953 km, 70.0° (Epoch: 14 December)

Event Time Altitude Azimuth Distance (km) Brightness Sun altitude
Exits shadow 01:20:17 58° 150° (SSE) 1,084 4.2 -30.7°
Maximum altitude 01:20:59 62° 119° (ESE) 1,048 4.2 -30.6°
Drops below altitude 10° 01:27:03 10° 40° (NE) 2,665 6.9 -29.7°
Sets 01:29:37 0° 37° (NE) 3,615 7.6 -29.4°
